Regional Weather Roundup
Issued by NWS

Home | Current Version | Previous Version | Text Only | Print | Product List | Glossary On
Versions: 1 2 3 4 5 6 7 8 9 10 11 12 13 14 15 16 17 18 19 20 21 22 23 24 25 26 27
000
ASPQ40 PGUM 090312
RWRPQ
WEATHER ROUNDUP FOR THE MARIANAS AND MICRONESIA
NATIONAL WEATHER SERVICE TIYAN GU
100 PM CHST FRI DEC 09 2016

GUZ001>004-090400-
MARIANA ISLANDS-

CITY           SKY/WX    TMP DP  RH WIND       PRES   REMARKS
GUAM AIRPORT   MOSUNNY   86  73  66 E14       29.79F HX  93
ANDERSEN AFB   MOSUNNY   84  73  70 E14       29.81F HX  91
ROTA AIRPORT   MOSUNNY   82  73  74 E15       29.82F
TINIAN AP      PTSUNNY   81  79  94 E10       29.79F
SAIPAN AP      MOSUNNY   84  75  74 E13       29.80F HX  92

$$

PMZ161-090400-
REPUBLIC OF PALAU-

CITY           SKY/WX    TMP DP  RH WIND       PRES   REMARKS
KOROR AP       CLOUDY    86  81  84 NE7       29.76F HX 102
KOROR WSO      PTSUNNY   88  75  66 E7        29.77F HX  97

$$

PMZ171>174-090400-
FEDERATED STATES OF MICRONESIA-

CITY           SKY/WX    TMP DP  RH WIND       PRES   REMARKS
YAP AIRPORT    PTSUNNY   86  79  79 E8        29.74F HX  99
CHUUK AP       PTSUNNY   90  86  89 VRB7      29.71F HX 119
POHNPEI AP     CLOUDY    90  77  66 E9        29.86R HX 102
POHNPEI WSO    PTSUNNY   88  73  62 E8        29.71F HX  96
KOSRAE AP      PTSUNNY   88  75  66 NE16      29.72F HX  97

$$

PMZ181-090400-
REPUBLIC OF THE MARSHALL ISLANDS-

CITY           SKY/WX    TMP DP  RH WIND       PRES   REMARKS
KWAJALEIN AP   SUNNY     86  73  66 E15       29.73F HX  93
MAJURO AP      CLOUDY    84  75  74 NE16      29.69  HX  92
MAJURO WSO     CLOUDY    86  77  74 NE9       29.70F HX  97

$$





USA.gov is the U.S. government's official web portal to all federal, state and local government web resources and services.